This demonstration page uses our WeatherBlox Daily Observations layout. Learn more.

Left ArrowRight Arrow

30.00354, -91.81873

Hourly Observations for September 15, 2022

Temp ( °F °C ) Dew Point ( °F °C ) Humidity (%) Winds ( mph kmh ) Pressure ( in mb ) Visibility ( mi km ) Precip ( " mm )
12:53 am 00:53 Clear 67 19.4 62 16.7 84 84 Calm 30.04 1017 10 16 0.00 0.00
1:53 am 01:53 Clear 66 18.9 61 16.1 84 84 N 3 6 30.04 1017 10 16 0.00 0.00
2:53 am 02:53 Clear 65 18.3 60 15.6 84 84 N 6 9 30.03 1017 10 16 0.00 0.00
3:53 am 03:53 Clear 62 16.7 59 15 90 90 Calm 30.04 1017 10 16 0.00 0.00
4:53 am 04:53 Clear 63 17.2 60 15.6 90 90 Calm 30.04 1017 10 16 0.00 0.00
5:53 am 05:53 Clear 64 17.8 61 16.1 90 90 N 3 6 30.04 1017 10 16 0.00 0.00
6:53 am 06:53 Sunny 65 18.3 61 16.1 87 87 NE 6 9 30.05 1018 10 16 0.00 0.00
7:53 am 07:53 Sunny 70 21.1 62 16.7 76 76 NE 7 11 30.06 1018 10 16 0.00 0.00
8:53 am 08:53 Sunny 75 23.9 63 17.2 66 66 NE 9 15 30.07 1018 10 16 0.00 0.00
9:53 am 09:53 Sunny 80 26.7 64 17.8 58 58 ENE 9 15 30.08 1019 10 16 0.00 0.00
10:53 am 10:53 Sunny 84 28.9 62 16.7 48 48 E 13 20 30.09 1019 10 16 0.00 0.00
11:53 am 11:53 Sunny 86 30 63 17.2 46 46 ENE 10 17 30.07 1018 10 16 0.00 0.00
12:53 pm 12:53 Sunny 87 30.6 62 16.7 43 43 VRB 5 7 30.06 1018 10 16 0.00 0.00
1:53 pm 13:53 Sunny 88 31.1 60 15.6 39 39 E 5 7 30.05 1018 10 16 0.00 0.00
2:53 pm 14:53 Sunny 89 31.7 57 13.9 34 34 SE 6 9 30.04 1017 10 16 0.00 0.00
3:53 pm 15:53 Sunny 90 32.2 58 14.4 34 34 ENE 7 11 30.02 1017 10 16 0.00 0.00
4:53 pm 16:53 Sunny 89 31.7 57 13.9 34 34 ENE 7 11 30.01 1016 10 16 0.00 0.00
5:53 pm 17:53 Sunny 88 31.1 59 15 38 38 E 6 9 30.01 1016 10 16 0.00 0.00
6:53 pm 18:53 Sunny 83 28.3 63 17.2 51 51 E 3 6 30.02 1017 10 16 0.00 0.00
7:53 pm 19:53 Clear 79 26.1 64 17.8 60 60 Calm 30.03 1017 10 16 0.00 0.00
8:53 pm 20:53 Clear 78 25.6 64 17.8 62 62 ESE 3 6 30.05 1018 10 16 0.00 0.00
9:53 pm 21:53 Clear 74 23.3 67 19.4 79 79 Calm 30.05 1018 10 16 0.00 0.00
10:53 pm 22:53 Clear 73 22.8 66 18.9 79 79 E 3 6 30.06 1018 10 16 0.00 0.00
11:53 pm 23:53 Clear 72 22.2 66 18.9 82 82 SE 7 11 30.06 1018 10 16 0.00 0.00

Powered by AerisWeather